ELECTRON R/B

基本信息
目录编号:
64626
目录名称:
ELECTRON R/B
国际标识:
2025-138F
轨道中心:
EARTH
物体状态:
已陨落(2025-07-03)
发射日期:
2025-06-26 UTC
国别:
美国 (US)
轨道信息
数据来源: 国际轨道数据
星历时间: 2025-06-30T22:38:22+0800
半长轴: 6662.13km
偏心率: 0.0179629
轨道倾角: 97.424°
近地点辐角: 21.129°
升交点赤经: 186.551°
平近点角: 339.776°
近地点: 164.323km
远地点: 403.667km
周期: 90.194分钟
每日圈数: 15.965522
详细信息
发射场:
RLLC
轨道高度:
LEO
数据来源:
AOE Integration Group
参考系:
TEME
时间系统:
UTC
历元类型:
SGP4
2D轨道图
3D轨道图
轨道高度分析图
轨道倾角分析图
轨道综合分析图
查看轨道综合分析图